Terminal Aerodrome Forecast
Issued by NWS Sterling, VA

Current Version | Previous Version | Graphics & Text | Print | Product List | Glossary On
Versions: 1 2 3 4 5 6 7 8 9 10 11 12 13 14 15 16 17 18 19 20 21 22 23 24 25
771
FTUS41 KLWX 231503 AAA
TAFMRB
TAF AMD
KMRB 231503Z 2315/2412 03005KT P6SM OVC050
     FM232000 07005KT P6SM OVC025
     FM240000 06004KT P6SM OVC015
     FM240500 00000KT 6SM BR BKN008=

USA.gov is the U.S. government's official web portal to all federal, state and local government web resources and services.